^^
Datos históricos de la estación: Murcia-Puente Tocinos
Diario Informe para Febrero 7, 2019 Unidades:  Métrico    Inglés   Ambas
Diario Semanal Mensual Anual Configurable
  Máximo: Mínimo: Media:
Temperatura: 23.2 °C 8.9 °C 15.1 °C
Punto de rocio: 10.2 °C 2.3 °C 5.2 °C
Humedad: 84% 29% 55%
Velocidad viento: 18.3km/h 0.0km/h 8.8km/h
Racha viento: 35.2km/h - -
Viento- - South
Presión: 1022.0 hPa 1017.8 hPa -
Precipitación: 0.0 mm    
Historical Graphs
 
 
Tabla de datos para Febrero 7, 2019
Hora Temperatura Punto de rocio Presión Viento Velocidad viento Racha viento Humedad Intensidad lluvia(por hora) Nubes
00:00 12.6 °C 4.8 °C 1021.4 hPa WSW 4.8 km/h 8.0 km/h 59% 0.0 mm CLR
00:05 12.5 °C 4.7 °C 1021.3 hPa WSW 5.8 km/h 5.6 km/h 59% 0.0 mm CLR
00:10 12.4 °C 4.6 °C 1021.3 hPa WSW 3.9 km/h 7.4 km/h 59% 0.0 mm CLR
00:15 12.4 °C 4.6 °C 1021.3 hPa WSW 3.9 km/h 7.4 km/h 59% 0.0 mm CLR
00:20 12.4 °C 4.8 °C 1021.3 hPa WSW 5.0 km/h 8.4 km/h 60% 0.0 mm CLR
00:25 12.2 °C 4.7 °C 1021.3 hPa SW 5.0 km/h 11.1 km/h 60% 0.0 mm CLR
00:30 12.1 °C 4.6 °C 1021.3 hPa WSW 7.6 km/h 7.4 km/h 60% 0.0 mm CLR
00:35 12.1 °C 4.6 °C 1021.2 hPa SSW 7.6 km/h 9.3 km/h 60% 0.0 mm CLR
00:40 12.1 °C 4.6 °C 1021.2 hPa SSW 5.8 km/h 9.3 km/h 60% 0.0 mm CLR
00:45 12.2 °C 4.4 °C 1021.2 hPa SSW 5.8 km/h 11.1 km/h 59% 0.0 mm CLR
00:50 12.2 °C 4.4 °C 1021.2 hPa SW 6.9 km/h 9.3 km/h 59% 0.0 mm CLR
00:55 12.1 °C 4.3 °C 1021.2 hPa SW 6.9 km/h 8.4 km/h 59% 0.0 mm CLR
01:00 12.0 °C 4.4 °C 1021.2 hPa SSW 8.0 km/h 11.3 km/h 60% 0.0 mm CLR
01:05 11.9 °C 4.4 °C 1021.3 hPa SSW 6.4 km/h 7.4 km/h 60% 0.0 mm CLR
01:10 11.8 °C 4.3 °C 1021.3 hPa SSW 5.0 km/h 5.6 km/h 60% 0.0 mm CLR
01:15 11.7 °C 4.4 °C 1021.3 hPa SSW 5.0 km/h 7.4 km/h 61% 0.0 mm CLR
01:20 11.6 °C 4.3 °C 1021.3 hPa SSW 3.9 km/h 3.7 km/h 61% 0.0 mm CLR
01:25 11.6 °C 4.3 °C 1021.3 hPa SSW 3.9 km/h 3.7 km/h 61% 0.0 mm CLR
01:30 11.3 °C 4.3 °C 1021.3 hPa SSW 2.3 km/h 5.6 km/h 62% 0.0 mm CLR
01:35 11.1 °C 4.3 °C 1021.2 hPa South 2.3 km/h 5.6 km/h 63% 0.0 mm CLR
01:40 10.9 °C 4.3 °C 1021.2 hPa SSE 3.9 km/h 9.3 km/h 64% 0.0 mm CLR
01:45 10.8 °C 4.3 °C 1021.2 hPa South 3.9 km/h 7.4 km/h 64% 0.0 mm CLR
01:50 10.7 °C 4.4 °C 1021.0 hPa South 5.8 km/h 7.4 km/h 65% 0.0 mm CLR
01:55 10.6 °C 4.3 °C 1021.0 hPa South 5.8 km/h 6.9 km/h 65% 0.0 mm CLR
02:00 10.6 °C 4.2 °C 1021.0 hPa South 3.2 km/h 8.0 km/h 65% 0.0 mm CLR
02:05 10.4 °C 4.1 °C 1020.9 hPa South 4.7 km/h 5.6 km/h 65% 0.0 mm CLR
02:10 10.3 °C 4.0 °C 1020.9 hPa SSE 4.7 km/h 7.4 km/h 65% 0.0 mm CLR
02:15 10.1 °C 4.1 °C 1020.9 hPa SSE 4.7 km/h 9.3 km/h 66% 0.0 mm CLR
02:20 9.8 °C 3.9 °C 1020.7 hPa SSE 5.8 km/h 7.4 km/h 67% 0.0 mm CLR
02:25 9.7 °C 3.9 °C 1020.7 hPa SSE 5.8 km/h 5.8 km/h 67% 0.0 mm CLR
02:30 9.7 °C 3.9 °C 1020.7 hPa SSW 5.0 km/h 8.7 km/h 67% 0.0 mm CLR
02:35 9.8 °C 3.9 °C 1020.7 hPa SSW 5.0 km/h 7.4 km/h 67% 0.0 mm CLR
02:40 9.9 °C 3.8 °C 1020.7 hPa SSW 5.0 km/h 7.4 km/h 66% 0.0 mm CLR
02:45 10.1 °C 3.8 °C 1020.7 hPa SSW 5.0 km/h 9.3 km/h 65% 0.0 mm CLR
02:50 10.1 °C 3.8 °C 1020.7 hPa South 5.0 km/h 7.4 km/h 65% 0.0 mm CLR
02:55 10.2 °C 3.9 °C 1020.7 hPa SSW 5.0 km/h 8.4 km/h 65% 0.0 mm CLR
03:00 10.2 °C 3.9 °C 1020.7 hPa SSW 4.8 km/h 9.7 km/h 65% 0.0 mm CLR
03:05 10.2 °C 3.9 °C 1020.8 hPa South 5.8 km/h 7.4 km/h 65% 0.0 mm CLR
03:10 10.2 °C 3.9 °C 1020.8 hPa SSE 5.0 km/h 9.5 km/h 65% 0.0 mm CLR
03:15 10.1 °C 3.8 °C 1020.8 hPa South 5.0 km/h 11.1 km/h 65% 0.0 mm CLR
03:20 10.0 °C 3.7 °C 1020.8 hPa SSE 6.9 km/h 9.3 km/h 65% 0.0 mm CLR
03:25 9.6 °C 3.6 °C 1020.8 hPa SSE 6.9 km/h 14.8 km/h 66% 0.0 mm CLR
03:30 9.2 °C 3.6 °C 1020.8 hPa South 8.7 km/h 11.1 km/h 68% 0.0 mm CLR
03:35 9.0 °C 3.4 °C 1020.8 hPa South 8.7 km/h 13.0 km/h 68% 0.0 mm CLR
03:40 8.9 °C 3.5 °C 1020.8 hPa SSW 8.4 km/h 11.1 km/h 69% 0.0 mm CLR
03:45 8.9 °C 3.5 °C 1020.8 hPa South 8.4 km/h 14.8 km/h 69% 0.0 mm CLR
03:50 9.0 °C 3.4 °C 1020.8 hPa SSW 9.5 km/h 11.1 km/h 68% 0.0 mm CLR
03:55 9.1 °C 3.5 °C 1020.8 hPa SSW 9.5 km/h 7.4 km/h 68% 0.0 mm CLR
04:00 9.1 °C 3.5 °C 1020.8 hPa South 8.0 km/h 11.3 km/h 68% 0.0 mm CLR
04:05 9.2 °C 3.6 °C 1020.6 hPa South 8.4 km/h 11.1 km/h 68% 0.0 mm CLR
04:10 9.2 °C 3.6 °C 1020.6 hPa SSW 8.4 km/h 11.1 km/h 68% 0.0 mm CLR
04:15 9.3 °C 3.5 °C 1020.6 hPa South 8.4 km/h 9.3 km/h 67% 0.0 mm CLR
04:20 9.4 °C 3.4 °C 1020.6 hPa South 7.6 km/h 13.0 km/h 66% 0.0 mm CLR
04:25 9.5 °C 3.4 °C 1020.6 hPa SSW 7.6 km/h 11.1 km/h 66% 0.0 mm CLR
04:30 9.6 °C 3.6 °C 1020.6 hPa SSW 7.6 km/h 11.1 km/h 66% 0.0 mm CLR
04:35 9.7 °C 3.7 °C 1020.4 hPa SW 7.6 km/h 11.1 km/h 66% 0.0 mm CLR
04:40 9.7 °C 3.4 °C 1020.4 hPa SSW 8.4 km/h 11.1 km/h 65% 0.0 mm CLR
04:45 9.7 °C 3.4 °C 1020.4 hPa SW 8.4 km/h 9.3 km/h 65% 0.0 mm CLR
04:50 9.7 °C 3.4 °C 1020.3 hPa SW 6.9 km/h 7.4 km/h 65% 0.0 mm CLR
04:55 9.7 °C 3.4 °C 1020.3 hPa WSW 6.9 km/h 7.4 km/h 65% 0.0 mm CLR
05:00 9.7 °C 3.7 °C 1020.3 hPa SW 3.2 km/h 8.0 km/h 66% 0.0 mm CLR
05:05 9.7 °C 3.7 °C 1020.3 hPa WSW 3.9 km/h 7.4 km/h 66% 0.0 mm CLR
05:10 9.6 °C 3.3 °C 1020.3 hPa SW 3.9 km/h 7.4 km/h 65% 0.0 mm CLR
05:15 9.6 °C 3.6 °C 1020.3 hPa SW 3.9 km/h 5.0 km/h 66% 0.0 mm CLR
05:20 9.6 °C 3.6 °C 1020.3 hPa WSW 4.7 km/h 7.4 km/h 66% 0.0 mm CLR
05:25 9.5 °C 3.4 °C 1020.3 hPa WSW 4.7 km/h 5.6 km/h 66% 0.0 mm CLR
05:30 9.4 °C 3.4 °C 1020.3 hPa SW 3.9 km/h 11.1 km/h 66% 0.0 mm CLR
05:35 9.3 °C 3.3 °C 1020.4 hPa SW 3.9 km/h 9.3 km/h 66% 0.0 mm CLR
05:40 9.3 °C 3.3 °C 1020.4 hPa SW 7.6 km/h 9.3 km/h 66% 0.0 mm CLR
05:45 9.4 °C 3.4 °C 1020.4 hPa WSW 7.6 km/h 11.9 km/h 66% 0.0 mm CLR
05:50 9.4 °C 3.4 °C 1020.4 hPa WSW 8.4 km/h 13.0 km/h 66% 0.0 mm CLR
05:55 9.4 °C 3.4 °C 1020.4 hPa WSW 8.4 km/h 11.1 km/h 66% 0.0 mm CLR
06:00 9.4 °C 3.4 °C 1020.4 hPa SW 9.7 km/h 14.5 km/h 66% 0.0 mm CLR
06:05 9.4 °C 3.6 °C 1020.4 hPa SW 8.7 km/h 9.3 km/h 67% 0.0 mm CLR
06:10 9.4 °C 3.6 °C 1020.4 hPa SW 6.9 km/h 11.1 km/h 67% 0.0 mm CLR
06:15 9.7 °C 3.7 °C 1020.4 hPa SW 6.9 km/h 10.0 km/h 66% 0.0 mm CLR
06:20 9.8 °C 3.5 °C 1020.5 hPa WSW 7.6 km/h 7.4 km/h 65% 0.0 mm CLR
06:25 9.9 °C 3.4 °C 1020.5 hPa WSW 7.6 km/h 9.3 km/h 64% 0.0 mm CLR
06:30 9.9 °C 3.4 °C 1020.5 hPa SW 6.4 km/h 8.4 km/h 64% 0.0 mm CLR
06:35 9.9 °C 3.4 °C 1020.4 hPa SW 6.4 km/h 7.6 km/h 64% 0.0 mm CLR
06:40 9.9 °C 3.4 °C 1020.4 hPa WSW 6.4 km/h 7.4 km/h 64% 0.0 mm CLR
06:45 9.9 °C 3.4 °C 1020.4 hPa West 6.4 km/h 9.3 km/h 64% 0.0 mm CLR
06:50 9.8 °C 3.3 °C 1020.3 hPa SW 6.4 km/h 9.3 km/h 64% 0.0 mm CLR
06:55 9.7 °C 3.4 °C 1020.3 hPa WSW 6.4 km/h 11.1 km/h 65% 0.0 mm CLR
07:00 9.7 °C 3.4 °C 1020.3 hPa WSW 8.0 km/h 11.3 km/h 65% 0.0 mm CLR
07:05 9.8 °C 3.3 °C 1020.3 hPa SW 7.6 km/h 13.0 km/h 64% 0.0 mm CLR
07:10 10.1 °C 3.4 °C 1020.3 hPa SW 8.7 km/h 13.0 km/h 63% 0.0 mm CLR
07:15 10.5 °C 3.1 °C 1020.3 hPa WSW 8.7 km/h 16.7 km/h 60% 0.0 mm CLR
07:20 10.8 °C 3.1 °C 1020.3 hPa WSW 10.3 km/h 13.0 km/h 59% 0.0 mm CLR
07:25 10.9 °C 2.9 °C 1020.3 hPa WSW 10.3 km/h 14.8 km/h 58% 0.0 mm CLR
07:30 10.8 °C 2.8 °C 1020.3 hPa West 11.1 km/h 20.4 km/h 58% 0.0 mm CLR
07:35 10.8 °C 3.1 °C 1020.3 hPa SW 11.1 km/h 16.7 km/h 59% 0.0 mm CLR
07:40 10.7 °C 3.0 °C 1020.3 hPa SSW 11.9 km/h 16.7 km/h 59% 0.0 mm CLR
07:45 10.9 °C 2.9 °C 1020.3 hPa WSW 11.9 km/h 18.5 km/h 58% 0.0 mm CLR
07:50 11.1 °C 2.9 °C 1020.2 hPa SW 11.1 km/h 14.8 km/h 57% 0.0 mm CLR
07:55 11.2 °C 2.7 °C 1020.2 hPa SW 11.1 km/h 16.7 km/h 56% 0.0 mm CLR
08:00 11.4 °C 2.7 °C 1020.2 hPa SW 11.3 km/h 20.9 km/h 55% 0.0 mm CLR
08:05 11.7 °C 2.7 °C 1020.2 hPa SW 11.1 km/h 14.8 km/h 54% 0.0 mm CLR
08:10 11.8 °C 2.5 °C 1020.2 hPa SSW 11.9 km/h 13.0 km/h 53% 0.0 mm CLR
08:15 11.9 °C 2.6 °C 1020.2 hPa SSW 11.9 km/h 14.8 km/h 53% 0.0 mm CLR
08:20 12.1 °C 2.6 °C 1020.3 hPa SW 9.5 km/h 13.7 km/h 52% 0.0 mm CLR
08:25 12.2 °C 2.3 °C 1020.3 hPa SW 9.5 km/h 11.1 km/h 51% 0.0 mm CLR
08:30 12.3 °C 2.4 °C 1020.3 hPa SW 9.5 km/h 14.8 km/h 51% 0.0 mm CLR
08:35 12.4 °C 2.3 °C 1020.5 hPa SSW 9.5 km/h 14.8 km/h 50% 0.0 mm CLR
08:40 12.8 °C 2.3 °C 1020.5 hPa SW 11.1 km/h 16.7 km/h 49% 0.0 mm CLR
08:45 12.9 °C 2.4 °C 1020.5 hPa SW 11.1 km/h 14.8 km/h 49% 0.0 mm CLR
08:50 12.9 °C 2.4 °C 1020.5 hPa SW 12.2 km/h 14.8 km/h 49% 0.0 mm CLR
08:55 12.9 °C 2.4 °C 1020.5 hPa SSW 12.2 km/h 14.8 km/h 49% 0.0 mm CLR
09:00 12.8 °C 2.3 °C 1020.5 hPa SW 11.3 km/h 20.9 km/h 49% 0.0 mm CLR
09:05 12.7 °C 2.6 °C 1020.6 hPa SW 11.9 km/h 16.7 km/h 50% 0.0 mm CLR
09:10 12.7 °C 2.6 °C 1020.6 hPa SW 10.3 km/h 16.7 km/h 50% 0.0 mm CLR
09:15 12.8 °C 2.6 °C 1020.6 hPa SSW 10.3 km/h 16.7 km/h 50% 0.0 mm CLR
09:20 12.9 °C 2.7 °C 1020.8 hPa SW 10.3 km/h 14.8 km/h 50% 0.0 mm CLR
09:25 13.0 °C 2.8 °C 1020.8 hPa South 10.3 km/h 13.0 km/h 50% 0.0 mm CLR
09:30 13.0 °C 2.8 °C 1020.8 hPa SW 9.5 km/h 14.8 km/h 50% 0.0 mm CLR
09:35 13.2 °C 3.0 °C 1020.9 hPa SSW 9.5 km/h 13.7 km/h 50% 0.0 mm CLR
09:40 13.3 °C 2.8 °C 1020.9 hPa SSW 9.5 km/h 16.7 km/h 49% 0.0 mm CLR
09:45 13.4 °C 3.2 °C 1020.9 hPa SSW 9.5 km/h 13.0 km/h 50% 0.0 mm CLR
09:50 13.5 °C 3.3 °C 1021.0 hPa SSW 9.5 km/h 13.0 km/h 50% 0.0 mm CLR
09:55 13.7 °C 3.2 °C 1021.0 hPa South 9.5 km/h 13.0 km/h 49% 0.0 mm CLR
10:00 13.9 °C 3.3 °C 1021.0 hPa SSW 8.0 km/h 14.5 km/h 49% 0.0 mm CLR
10:05 14.2 °C 3.3 °C 1021.1 hPa SW 8.4 km/h 13.0 km/h 48% 0.0 mm CLR
10:10 14.4 °C 3.5 °C 1021.1 hPa SSW 10.0 km/h 13.0 km/h 48% 0.0 mm CLR
10:15 14.6 °C 3.4 °C 1021.1 hPa South 10.0 km/h 14.8 km/h 47% 0.0 mm CLR
10:20 14.9 °C 3.7 °C 1021.3 hPa South 8.7 km/h 11.1 km/h 47% 0.0 mm CLR
10:25 15.1 °C 3.8 °C 1021.3 hPa SSW 8.7 km/h 13.0 km/h 47% 0.0 mm CLR
10:30 15.2 °C 3.9 °C 1021.3 hPa SW 8.7 km/h 13.0 km/h 47% 0.0 mm CLR
10:35 15.4 °C 4.1 °C 1021.3 hPa SSW 8.7 km/h 14.8 km/h 47% 0.0 mm CLR
10:40 15.6 °C 4.3 °C 1021.3 hPa WSW 10.3 km/h 16.7 km/h 47% 0.0 mm CLR
10:45 15.9 °C 4.3 °C 1021.3 hPa SW 10.3 km/h 20.4 km/h 46% 0.0 mm CLR
10:50 16.2 °C 4.6 °C 1021.3 hPa WSW 11.1 km/h 20.4 km/h 46% 0.0 mm CLR
10:55 16.4 °C 4.4 °C 1021.3 hPa SSW 11.1 km/h 19.0 km/h 45% 0.0 mm CLR
11:00 16.6 °C 4.3 °C 1021.3 hPa SW 12.9 km/h 24.1 km/h 44% 0.0 mm CLR
11:05 16.9 °C 4.6 °C 1021.3 hPa SW 13.7 km/h 24.1 km/h 44% 0.0 mm CLR
11:10 17.1 °C 4.7 °C 1021.3 hPa West 14.8 km/h 25.9 km/h 44% 0.0 mm CLR
11:15 17.4 °C 4.7 °C 1021.3 hPa WSW 14.8 km/h 25.9 km/h 43% 0.0 mm CLR
11:20 17.6 °C 4.9 °C 1021.2 hPa WSW 16.1 km/h 18.3 km/h 43% 0.0 mm CLR
11:25 17.8 °C 4.7 °C 1021.2 hPa WSW 16.1 km/h 24.1 km/h 42% 0.0 mm CLR
11:30 17.9 °C 4.8 °C 1021.2 hPa West 14.8 km/h 22.2 km/h 42% 0.0 mm CLR
11:35 18.1 °C 5.0 °C 1021.2 hPa WSW 14.8 km/h 20.4 km/h 42% 0.0 mm CLR
11:40 18.2 °C 4.7 °C 1021.2 hPa West 13.7 km/h 25.9 km/h 41% 0.0 mm CLR
11:45 18.2 °C 4.7 °C 1021.2 hPa WSW 13.7 km/h 22.5 km/h 41% 0.0 mm CLR
11:50 18.1 °C 4.6 °C 1021.2 hPa West 16.4 km/h 27.8 km/h 41% 0.0 mm CLR
11:55 18.2 °C 4.7 °C 1021.2 hPa WSW 16.4 km/h 27.8 km/h 41% 0.0 mm CLR
12:00 18.3 °C 4.5 °C 1021.2 hPa West 16.1 km/h 33.8 km/h 40% 0.0 mm CLR
12:05 18.5 °C 4.6 °C 1021.1 hPa WNW 16.4 km/h 22.2 km/h 40% 0.0 mm CLR
12:10 18.6 °C 4.4 °C 1021.1 hPa SW 16.1 km/h 22.2 km/h 39% 0.0 mm CLR
12:15 18.6 °C 4.4 °C 1021.1 hPa WNW 16.1 km/h 19.8 km/h 39% 0.0 mm CLR
12:20 18.8 °C 4.6 °C 1020.9 hPa WSW 14.0 km/h 16.7 km/h 39% 0.0 mm CLR
12:25 18.9 °C 3.9 °C 1020.9 hPa WNW 14.0 km/h 24.1 km/h 37% 0.0 mm CLR
12:30 19.2 °C 3.8 °C 1020.9 hPa WSW 17.2 km/h 27.8 km/h 36% 0.0 mm CLR
12:35 19.3 °C 3.8 °C 1020.8 hPa WNW 17.2 km/h 29.6 km/h 36% 0.0 mm CLR
12:40 19.3 °C 3.8 °C 1020.8 hPa WNW 18.3 km/h 35.2 km/h 36% 0.0 mm CLR
12:45 19.5 °C 4.0 °C 1020.8 hPa WSW 18.3 km/h 29.6 km/h 36% 0.0 mm CLR
12:50 19.6 °C 3.7 °C 1020.4 hPa WSW 18.0 km/h 22.2 km/h 35% 0.0 mm CLR
12:55 19.8 °C 4.3 °C 1020.4 hPa WSW 18.0 km/h 18.5 km/h 36% 0.0 mm CLR
13:00 19.9 °C 4.1 °C 1020.4 hPa West 12.9 km/h 22.5 km/h 35% 0.0 mm CLR
13:05 20.2 °C 4.2 °C 1020.1 hPa West 13.7 km/h 27.8 km/h 35% 0.0 mm CLR
13:10 20.1 °C 4.2 °C 1020.1 hPa West 14.8 km/h 22.2 km/h 35% 0.0 mm CLR
13:15 20.3 °C 4.3 °C 1020.1 hPa WNW 14.8 km/h 20.4 km/h 35% 0.0 mm CLR
13:20 20.4 °C 4.4 °C 1019.9 hPa WNW 13.0 km/h 18.5 km/h 35% 0.0 mm CLR
13:25 20.4 °C 4.4 °C 1019.9 hPa West 13.0 km/h 18.5 km/h 35% 0.0 mm CLR
13:30 20.3 °C 4.3 °C 1019.9 hPa West 13.0 km/h 24.1 km/h 35% 0.0 mm CLR
13:35 20.3 °C 4.3 °C 1019.6 hPa NW 13.0 km/h 22.2 km/h 35% 0.0 mm CLR
13:40 20.4 °C 4.4 °C 1019.6 hPa WNW 16.1 km/h 18.5 km/h 35% 0.0 mm CLR
13:45 20.5 °C 4.5 °C 1019.6 hPa WNW 16.1 km/h 18.5 km/h 35% 0.0 mm CLR
13:50 20.6 °C 4.2 °C 1019.5 hPa West 13.0 km/h 24.1 km/h 34% 0.0 mm CLR
13:55 20.6 °C 4.6 °C 1019.5 hPa WSW 13.0 km/h 14.8 km/h 35% 0.0 mm CLR
14:00 20.7 °C 4.3 °C 1019.5 hPa WSW 12.9 km/h 20.9 km/h 34% 0.0 mm CLR
14:05 20.8 °C 4.3 °C 1019.2 hPa WSW 13.7 km/h 18.3 km/h 34% 0.0 mm CLR
14:10 21.0 °C 4.6 °C 1019.2 hPa NW 11.1 km/h 14.8 km/h 34% 0.0 mm CLR
14:15 21.2 °C 4.3 °C 1019.2 hPa SW 11.1 km/h 13.0 km/h 33% 0.0 mm CLR
14:20 21.3 °C 4.4 °C 1019.0 hPa WNW 10.0 km/h 16.7 km/h 33% 0.0 mm CLR
14:25 21.4 °C 4.4 °C 1019.0 hPa West 10.0 km/h 18.5 km/h 33% 0.0 mm CLR
14:30 21.5 °C 4.6 °C 1019.0 hPa WNW 11.9 km/h 13.0 km/h 33% 0.0 mm CLR
14:35 21.6 °C 4.2 °C 1018.9 hPa West 11.9 km/h 24.1 km/h 32% 0.0 mm CLR
14:40 21.6 °C 4.6 °C 1018.9 hPa West 11.9 km/h 20.4 km/h 33% 0.0 mm CLR
14:45 21.6 °C 4.6 °C 1018.9 hPa West 11.9 km/h 16.7 km/h 33% 0.0 mm CLR
14:50 21.6 °C 4.6 °C 1018.7 hPa SSW 9.5 km/h 13.0 km/h 33% 0.0 mm CLR
14:55 21.8 °C 4.8 °C 1018.7 hPa WSW 9.5 km/h 14.8 km/h 33% 0.0 mm CLR
15:00 21.8 °C 4.8 °C 1018.7 hPa WSW 9.7 km/h 19.3 km/h 33% 0.0 mm CLR
15:05 21.8 °C 4.8 °C 1018.5 hPa SW 10.0 km/h 16.7 km/h 33% 0.0 mm CLR
15:10 21.9 °C 4.9 °C 1018.5 hPa West 10.0 km/h 14.8 km/h 33% 0.0 mm CLR
15:15 21.9 °C 4.4 °C 1018.5 hPa WSW 10.0 km/h 18.5 km/h 32% 0.0 mm CLR
15:20 22.1 °C 4.6 °C 1018.4 hPa WSW 9.5 km/h 14.8 km/h 32% 0.0 mm CLR
15:25 22.1 °C 4.6 °C 1018.4 hPa SSW 9.5 km/h 9.3 km/h 32% 0.0 mm CLR
15:30 22.2 °C 4.3 °C 1018.4 hPa SW 8.7 km/h 13.0 km/h 31% 0.0 mm CLR
15:35 22.3 °C 4.3 °C 1018.2 hPa SW 8.7 km/h 14.8 km/h 31% 0.0 mm CLR
15:40 22.3 °C 4.3 °C 1018.2 hPa SW 9.5 km/h 14.8 km/h 31% 0.0 mm CLR
15:45 22.4 °C 4.4 °C 1018.2 hPa SSW 9.5 km/h 14.8 km/h 31% 0.0 mm CLR
15:50 22.4 °C 4.4 °C 1017.9 hPa SW 9.5 km/h 13.0 km/h 31% 0.0 mm CLR
15:55 22.6 °C 5.1 °C 1017.9 hPa SSW 9.5 km/h 9.3 km/h 32% 0.0 mm CLR
16:00 22.7 °C 4.7 °C 1017.9 hPa SW 8.0 km/h 14.5 km/h 31% 0.0 mm CLR
16:05 22.8 °C 4.8 °C 1018.0 hPa WSW 8.4 km/h 7.4 km/h 31% 0.0 mm CLR
16:10 23.0 °C 4.9 °C 1018.0 hPa SW 5.8 km/h 7.4 km/h 31% 0.0 mm CLR
16:15 23.1 °C 5.1 °C 1018.0 hPa SSW 5.8 km/h 9.3 km/h 31% 0.0 mm CLR
16:20 23.2 °C 4.7 °C 1017.8 hPa SSW 5.0 km/h 9.3 km/h 30% 0.0 mm CLR
16:25 23.1 °C 4.6 °C 1017.8 hPa SW 5.0 km/h 11.1 km/h 30% 0.0 mm CLR
16:30 23.2 °C 4.7 °C 1017.8 hPa West 5.8 km/h 9.3 km/h 30% 0.0 mm CLR
16:35 23.1 °C 4.6 °C 1017.9 hPa NW 5.8 km/h 7.4 km/h 30% 0.0 mm CLR
16:40 23.1 °C 4.6 °C 1017.9 hPa SSW 5.0 km/h 9.3 km/h 30% 0.0 mm CLR
16:45 23.1 °C 4.6 °C 1017.9 hPa SSE 5.0 km/h 7.4 km/h 30% 0.0 mm CLR
16:50 23.1 °C 4.6 °C 1017.9 hPa SW 6.4 km/h 11.1 km/h 30% 0.0 mm CLR
16:55 23.2 °C 4.7 °C 1017.9 hPa SW 6.4 km/h 7.4 km/h 30% 0.0 mm CLR
17:00 23.2 °C 4.7 °C 1017.9 hPa WSW 8.0 km/h 14.5 km/h 30% 0.0 mm CLR
17:05 23.1 °C 4.6 °C 1017.9 hPa WSW 7.6 km/h 7.4 km/h 30% 0.0 mm CLR
17:10 23.1 °C 4.1 °C 1017.9 hPa SSE 7.6 km/h 11.1 km/h 29% 0.0 mm CLR
17:15 23.0 °C 4.5 °C 1017.9 hPa SSE 7.6 km/h 11.1 km/h 30% 0.0 mm CLR
17:20 22.9 °C 4.4 °C 1017.9 hPa SE 7.6 km/h 13.7 km/h 30% 0.0 mm CLR
17:25 22.7 °C 4.7 °C 1017.9 hPa ESE 7.6 km/h 9.3 km/h 31% 0.0 mm CLR
17:30 22.6 °C 4.6 °C 1017.9 hPa South 6.9 km/h 7.6 km/h 31% 0.0 mm CLR
17:35 22.7 °C 4.2 °C 1017.8 hPa SE 6.9 km/h 9.3 km/h 30% 0.0 mm CLR
17:40 22.8 °C 4.3 °C 1017.8 hPa South 6.4 km/h 9.3 km/h 30% 0.0 mm CLR
17:45 22.8 °C 4.3 °C 1017.8 hPa SSE 6.4 km/h 11.1 km/h 30% 0.0 mm CLR
17:50 22.6 °C 4.6 °C 1017.8 hPa SSE 7.6 km/h 13.0 km/h 31% 0.0 mm CLR
17:55 22.4 °C 4.4 °C 1017.8 hPa South 7.6 km/h 13.0 km/h 31% 0.0 mm CLR
18:00 22.4 °C 4.4 °C 1017.8 hPa SSE 9.7 km/h 11.3 km/h 31% 0.0 mm CLR
18:05 22.3 °C 4.8 °C 1017.9 hPa SE 8.7 km/h 9.3 km/h 32% 0.0 mm CLR
18:10 22.2 °C 4.7 °C 1017.9 hPa SE 6.4 km/h 9.3 km/h 32% 0.0 mm CLR
18:15 22.0 °C 4.6 °C 1017.9 hPa SE 6.4 km/h 7.4 km/h 32% 0.0 mm CLR
18:20 21.9 °C 4.4 °C 1017.9 hPa SE 5.8 km/h 5.6 km/h 32% 0.0 mm CLR
18:25 21.8 °C 4.8 °C 1017.9 hPa ESE 5.8 km/h 7.4 km/h 33% 0.0 mm CLR
18:30 21.7 °C 4.7 °C 1017.9 hPa ESE 5.0 km/h 7.4 km/h 33% 0.0 mm CLR
18:35 21.4 °C 4.9 °C 1018.1 hPa North 5.0 km/h 6.4 km/h 34% 0.0 mm CLR
18:40 20.6 °C 7.2 °C 1018.1 hPa NE 5.8 km/h 19.0 km/h 42% 0.0 mm CLR
18:45 19.4 °C 8.1 °C 1018.1 hPa NNE 5.8 km/h 19.0 km/h 48% 0.0 mm CLR
18:50 18.4 °C 8.7 °C 1018.5 hPa NNE 11.9 km/h 20.4 km/h 53% 0.0 mm CLR
18:55 17.6 °C 8.7 °C 1018.5 hPa NNE 11.9 km/h 18.5 km/h 56% 0.0 mm CLR
19:00 17.2 °C 8.6 °C 1018.5 hPa NNE 12.9 km/h 20.9 km/h 57% 0.0 mm CLR
19:05 16.8 °C 9.0 °C 1018.9 hPa NNE 13.7 km/h 24.1 km/h 60% 0.0 mm CLR
19:10 16.6 °C 9.3 °C 1018.9 hPa NE 14.8 km/h 27.4 km/h 62% 0.0 mm CLR
19:15 16.3 °C 9.5 °C 1018.9 hPa NE 14.8 km/h 20.4 km/h 64% 0.0 mm CLR
19:20 16.2 °C 9.6 °C 1019.0 hPa ENE 15.6 km/h 22.2 km/h 65% 0.0 mm CLR
19:25 16.1 °C 9.7 °C 1019.0 hPa NNE 15.6 km/h 20.4 km/h 66% 0.0 mm CLR
19:30 15.9 °C 9.8 °C 1019.0 hPa NE 13.7 km/h 14.8 km/h 67% 0.0 mm CLR
19:35 15.8 °C 9.9 °C 1019.4 hPa ENE 13.7 km/h 13.0 km/h 68% 0.0 mm CLR
19:40 15.7 °C 10.0 °C 1019.4 hPa NE 10.0 km/h 15.6 km/h 69% 0.0 mm CLR
19:45 15.6 °C 10.2 °C 1019.4 hPa NE 10.0 km/h 20.4 km/h 70% 0.0 mm CLR
19:50 15.4 °C 9.9 °C 1019.5 hPa NE 11.9 km/h 20.4 km/h 70% 0.0 mm CLR
19:55 15.2 °C 10.2 °C 1019.5 hPa NE 11.9 km/h 22.2 km/h 72% 0.0 mm CLR
20:00 15.1 °C 10.1 °C 1019.5 hPa NE 12.9 km/h 20.9 km/h 72% 0.0 mm CLR
20:05 15.0 °C 10.2 °C 1019.7 hPa North 13.0 km/h 24.1 km/h 73% 0.0 mm CLR
20:10 14.9 °C 10.1 °C 1019.7 hPa NNE 14.8 km/h 22.2 km/h 73% 0.0 mm CLR
20:15 14.8 °C 10.0 °C 1019.7 hPa ENE 14.8 km/h 24.1 km/h 73% 0.0 mm CLR
20:20 14.8 °C 9.8 °C 1019.9 hPa NE 14.0 km/h 20.4 km/h 72% 0.0 mm CLR
20:25 14.8 °C 9.6 °C 1019.9 hPa NE 14.0 km/h 18.5 km/h 71% 0.0 mm CLR
20:30 14.8 °C 9.4 °C 1019.9 hPa ENE 14.8 km/h 20.4 km/h 70% 0.0 mm CLR
20:35 14.8 °C 9.4 °C 1020.1 hPa NE 14.8 km/h 25.9 km/h 70% 0.0 mm CLR
20:40 14.9 °C 9.5 °C 1020.1 hPa NE 16.4 km/h 22.2 km/h 70% 0.0 mm CLR
20:45 14.9 °C 9.5 °C 1020.1 hPa NNE 16.4 km/h 20.4 km/h 70% 0.0 mm CLR
20:50 14.9 °C 9.5 °C 1020.4 hPa ENE 14.8 km/h 22.2 km/h 70% 0.0 mm CLR
20:55 14.8 °C 9.6 °C 1020.4 hPa NE 14.8 km/h 20.4 km/h 71% 0.0 mm CLR
21:00 14.8 °C 9.6 °C 1020.4 hPa NE 12.9 km/h 19.3 km/h 71% 0.0 mm CLR
21:05 14.7 °C 9.7 °C 1020.6 hPa NE 13.7 km/h 18.5 km/h 72% 0.0 mm CLR
21:10 14.7 °C 9.9 °C 1020.6 hPa NE 11.1 km/h 14.8 km/h 73% 0.0 mm CLR
21:15 14.6 °C 10.0 °C 1020.6 hPa NNE 11.1 km/h 14.8 km/h 74% 0.0 mm CLR
21:20 14.4 °C 10.0 °C 1020.7 hPa NE 10.3 km/h 13.0 km/h 75% 0.0 mm CLR
21:25 14.3 °C 9.9 °C 1020.7 hPa NE 10.3 km/h 13.0 km/h 75% 0.0 mm CLR
21:30 14.3 °C 10.1 °C 1020.7 hPa NNE 9.5 km/h 11.1 km/h 76% 0.0 mm CLR
21:35 14.2 °C 10.0 °C 1020.9 hPa NNE 9.5 km/h 11.1 km/h 76% 0.0 mm CLR
21:40 14.2 °C 10.0 °C 1020.9 hPa ENE 8.4 km/h 11.1 km/h 76% 0.0 mm CLR
21:45 14.1 °C 9.9 °C 1020.9 hPa NE 8.4 km/h 7.4 km/h 76% 0.0 mm CLR
21:50 14.1 °C 9.9 °C 1021.0 hPa NNE 6.4 km/h 9.3 km/h 76% 0.0 mm CLR
21:55 13.9 °C 9.9 °C 1021.0 hPa North 6.4 km/h 9.3 km/h 77% 0.0 mm CLR
22:00 13.8 °C 10.1 °C 1021.0 hPa NNE 4.8 km/h 9.7 km/h 78% 0.0 mm CLR
22:05 13.6 °C 9.8 °C 1021.2 hPa NE 5.8 km/h 7.4 km/h 78% 0.0 mm CLR
22:10 13.4 °C 9.8 °C 1021.2 hPa NE 3.9 km/h   79% 0.0 mm CLR
22:15 13.4 °C 10.0 °C 1021.2 hPa NE 3.9 km/h 1.9 km/h 80% 0.0 mm CLR
22:20 13.3 °C 10.1 °C 1021.4 hPa Calm   5.6 km/h 81% 0.0 mm CLR
22:25 13.2 °C 10.0 °C 1021.4 hPa Calm     81% 0.0 mm CLR
22:30 13.2 °C 10.2 °C 1021.4 hPa NE 2.3 km/h   82% 0.0 mm CLR
22:35 13.1 °C 10.1 °C 1021.4 hPa NE 2.3 km/h   82% 0.0 mm CLR
22:40 13.1 °C 10.1 °C 1021.4 hPa Calm     82% 0.0 mm CLR
22:45 13.0 °C 10.2 °C 1021.4 hPa Calm   3.7 km/h 83% 0.0 mm CLR
22:50 13.0 °C 10.2 °C 1021.5 hPa Calm     83% 0.0 mm CLR
22:55 12.9 °C 10.1 °C 1021.5 hPa Calm   3.7 km/h 83% 0.0 mm CLR
23:00 12.8 °C 10.0 °C 1021.5 hPa NE 1.6 km/h 3.2 km/h 83% 0.0 mm CLR
23:05 12.7 °C 9.9 °C 1021.6 hPa NE 2.3 km/h 3.7 km/h 83% 0.0 mm CLR
23:10 12.6 °C 9.9 °C 1021.6 hPa Calm     84% 0.0 mm CLR
23:15 12.4 °C 9.8 °C 1021.6 hPa Calm   6.4 km/h 84% 0.0 mm CLR
23:20 12.3 °C 9.7 °C 1021.8 hPa WNW 2.9 km/h 5.6 km/h 84% 0.0 mm CLR
23:25 12.3 °C 9.7 °C 1021.8 hPa WNW 2.9 km/h 3.7 km/h 84% 0.0 mm CLR
23:30 12.2 °C 9.6 °C 1021.8 hPa WNW 3.2 km/h   84% 0.0 mm CLR
23:35 12.1 °C 9.5 °C 1021.9 hPa WNW 3.2 km/h   84% 0.0 mm CLR
23:40 12.1 °C 9.5 °C 1021.9 hPa Calm   3.7 km/h 84% 0.0 mm CLR
23:45 12.1 °C 9.5 °C 1021.9 hPa Calm   3.9 km/h 84% 0.0 mm CLR
23:50 11.9 °C 8.7 °C 1022.0 hPa SE 2.3 km/h 7.4 km/h 81% 0.0 mm CLR
23:55 11.7 °C 8.4 °C 1022.0 hPa SE 2.3 km/h 3.7 km/h 80% 0.0 mm CLR
Murcia-Puente Tocinos, España
Compliments of Weather Underground - 2.75 mb

La estación de MeteoMurcia.com, publica sus datos en los siguientes proyectos:

Weather Underground PWS IMURCIAP2 Meteoclimatic www.awekas.at

W3Counter
Web Analytics